EW2795 Weather Reports


Display with metric or nautical units.
time (UTC)temp
F
wind
direction
speed
MPH
gust
MPH
rain 1hr
in
rain 24hr
in
rain mn
in
humidity
%
barometer
mb
20260507234521 55 253 2.0 0.0 0.00 0.00 0.00 47 1011.6
20260507233015 56 223 3.0 0.0 0.00 0.00 0.00 44 1011.4
20260507231512 57 242 2.0 0.0 0.00 0.00 0.00 44 1011.3
20260507230004 56 39 3.0 0.0 0.00 0.00 0.00 43 1011.5
20260507224559 57 271 4.0 0.0 0.00 0.00 0.00 45 1011.7
20260507224503 57 257 4.0 0.0 0.00 0.00 0.00 46 1011.6
20260507223057 58 283 3.0 0.0 0.00 0.00 0.00 45 1011.7
20260507223001 58 280 3.0 0.0 0.00 0.00 0.00 45 1011.7
20260507221557 57 240 3.0 0.0 0.00 0.00 0.00 45 1011.8
20260507221501 57 287 3.0 0.0 0.00 0.00 0.00 45 1011.9
20260507220039 57 303 4.0 0.0 0.00 0.00 0.00 44 1011.7
20260507214531 58 228 4.0 0.0 0.00 0.00 0.00 43 1011.7
20260507213015 58 281 4.0 0.0 0.00 0.00 0.00 43 1011.6
20260507211511 57 108 4.0 0.0 0.00 0.00 0.00 45 1011.4
20260507210100 57 264 3.0 0.0 0.00 0.00 0.00 43 1011.5
20260507204551 58 44 4.0 0.0 0.00 0.00 0.00 46 1011.2
20260507203045 58 286 4.0 0.0 0.00 0.00 0.00 47 1011.3
20260507201529 57 234 4.0 0.0 0.00 0.00 0.00 48 1011.6
20260507200024 57 282 5.0 0.0 0.00 0.00 0.00 49 1011.4
20260507194600 57 250 6.0 0.0 0.00 0.00 0.00 50 1011.6
20260507194503 57 122 6.0 0.0 0.00 0.00 0.00 49 1011.6
20260507193059 57 252 6.0 0.0 0.00 0.00 0.00 49 1011.8
20260507193003 57 260 6.0 0.0 0.00 0.00 0.00 49 1011.7
20260507191553 57 199 5.0 0.0 0.00 0.00 0.00 48 1011.7
20260507190035 56 267 7.0 0.0 0.00 0.00 0.00 50 1011.9
20260507184520 55 264 4.0 0.0 0.00 0.00 0.00 56 1012.0
20260507183012 55 237 4.0 0.0 0.00 0.00 0.00 54 1012.1
20260507181506 55 221 5.0 0.0 0.00 0.00 0.00 56 1012.1
20260507180100 55 260 6.0 0.0 0.00 0.00 0.00 56 1012.0
20260507174557 55 293 4.0 0.0 0.00 0.00 0.00 57 1012.2
20260507173042 54 292 5.0 0.0 0.00 0.00 0.00 58 1012.3
20260507171526 55 275 4.0 0.0 0.00 0.00 0.00 54 1012.5
20260507170022 55 221 4.0 0.0 0.00 0.00 0.00 56 1012.4
20260507164508 54 223 6.0 0.0 0.00 0.00 0.00 53 1012.7
20260507163054 54 217 6.0 0.0 0.00 0.00 0.00 56 1012.6
20260507161544 54 269 5.0 0.0 0.00 0.00 0.00 57 1012.5
20260507160044 53 218 4.0 0.0 0.00 0.00 0.00 56 1012.5
20260507154530 53 286 4.0 0.0 0.00 0.00 0.00 56 1012.4
20260507153014 53 220 4.0 0.0 0.00 0.00 0.00 57 1012.5
20260507151506 53 261 5.0 0.0 0.00 0.00 0.00 55 1012.4
20260507150046 52 275 4.0 0.0 0.00 0.00 0.00 58 1012.3
20260507144536 51 261 5.0 0.0 0.00 0.00 0.00 58 1012.3
20260507143026 51 254 5.0 0.0 0.00 0.00 0.00 60 1012.5
20260507141518 50 175 4.0 0.0 0.00 0.00 0.00 60 1012.6
20260507140108 49 264 3.0 0.0 0.00 0.00 0.00 64 1012.6
20260507140006 49 265 3.0 0.0 0.00 0.00 0.00 66 1012.7
20260507134549 48 237 3.0 0.0 0.00 0.00 0.00 67 1012.7
20260507133038 48 213 4.0 0.0 0.00 0.00 0.00 69 1012.8
20260507131534 47 263 2.0 0.0 0.00 0.00 0.00 72 1012.9
20260507130025 46 263 2.0 0.0 0.00 0.00 0.00 75 1012.9
20260507124513 45 230 3.0 0.0 0.00 0.00 0.00 78 1012.8
20260507123054 44 284 3.0 0.0 0.00 0.00 0.00 83 1012.8
20260507121551 42 246 2.0 0.0 0.00 0.00 0.00 93 1012.8
20260507120040 40 265 2.0 0.0 0.00 0.00 0.00 95 1012.7
20260507114529 39 264 1.0 0.0 0.00 0.00 0.00 96 1012.8
20260507113020 38 269 0.0 0.0 0.00 0.00 0.00 96 1013.0
20260507111510 37 276 0.0 0.0 0.00 0.00 0.00 95 1012.7
20260507110058 37 276 0.0 0.0 0.00 0.00 0.00 95 1012.5
20260507110007 37 277 0.0 0.0 0.00 0.00 0.00 95 1012.5
20260507104554 37 277 0.0 0.0 0.00 0.00 0.00 95 1012.5
20260507103043 37 277 0.0 0.0 0.00 0.00 0.00 95 1012.4
20260507101541 37 276 0.0 0.0 0.00 0.00 0.00 95 1012.2
20260507100031 37 277 0.0 0.0 0.00 0.00 0.00 95 1012.2
20260507094522 37 277 0.0 0.0 0.00 0.00 0.00 95 1012.2
20260507093023 38 276 0.0 0.0 0.00 0.00 0.00 95 1012.1
20260507091513 38 277 0.0 0.0 0.00 0.00 0.00 95 1012.1
20260507090105 38 276 0.0 0.0 0.00 0.00 0.00 95 1012.1
20260507090007 38 277 0.0 0.0 0.00 0.00 0.00 95 1012.0
20260507084551 38 277 0.0 0.0 0.00 0.00 0.00 95 1012.0
20260507083047 38 276 0.0 0.0 0.00 0.00 0.00 95 1012.1
20260507081544 38 276 0.0 0.0 0.00 0.00 0.00 94 1012.1
20260507080038 38 277 0.0 0.0 0.00 0.00 0.00 94 1012.1
20260507074525 38 277 0.0 0.0 0.00 0.00 0.00 94 1012.2
20260507073025 38 277 0.0 0.0 0.00 0.00 0.00 94 1012.1
20260507071510 38 277 0.0 0.0 0.00 0.00 0.00 94 1012.1
20260507070114 39 277 0.0 0.0 0.00 0.00 0.00 93 1012.2
20260507070001 39 277 0.0 0.0 0.00 0.00 0.00 93 1012.2
20260507064547 39 277 0.0 0.0 0.00 0.00 0.00 93 1012.2
20260507063048 39 277 0.0 0.0 0.00 0.00 0.00 93 1012.3
20260507061527 40 277 0.0 0.0 0.00 0.00 0.00 93 1012.3
20260507060035 40 276 0.0 0.0 0.00 0.00 0.00 93 1012.4
20260507054508 39 276 0.0 0.0 0.00 0.00 0.00 92 1012.7
20260507053051 39 276 0.0 0.0 0.00 0.00 0.00 92 1012.7
20260507051541 39 276 0.0 0.0 0.00 0.00 0.00 91 1012.7
20260507050036 40 277 0.0 0.0 0.00 0.00 0.00 90 1012.8
20260507044520 41 277 0.0 0.0 0.00 0.00 0.00 90 1012.6
20260507043017 41 277 0.0 0.0 0.00 0.00 0.00 90 1012.5
20260507041503 42 276 0.0 0.0 0.00 0.00 0.00 89 1012.6
20260507040048 42 277 1.0 0.0 0.00 0.00 0.00 89 1012.7
20260507034537 43 277 0.0 0.0 0.00 0.00 0.34 88 1012.8
20260507033028 43 277 0.0 0.0 0.00 0.00 0.34 87 1012.8
20260507031514 43 276 0.0 0.0 0.00 0.00 0.34 85 1013.0
20260507030106 44 277 0.0 0.0 0.00 0.00 0.34 84 1013.1
20260507024524 44 276 0.0 0.0 0.00 0.00 0.34 82 1013.1
20260507023004 45 277 0.0 0.0 0.00 0.00 0.34 80 1012.9
20260507021552 46 277 0.0 0.0 0.00 0.00 0.34 76 1012.8
20260507020044 47 276 0.0 0.0 0.00 0.00 0.34 74 1012.5
20260507014528 48 277 0.0 0.0 0.00 0.00 0.34 73 1012.6
20260507013023 49 277 0.0 0.0 0.00 0.00 0.34 72 1012.6
20260507011607 50 277 0.0 0.0 0.00 0.00 0.34 70 1012.4
20260507010055 50 276 1.0 0.0 0.00 0.00 0.34 67 1012.1
20260507004538 51 298 0.0 0.0 0.00 0.00 0.34 67 1012.1
20260507003028 51 300 1.0 0.0 0.00 0.00 0.34 65 1011.9
20260507001529 51 261 2.0 0.0 0.00 0.00 0.34 63 1011.7
20260507000017 52 253 1.0 0.0 0.00 0.00 0.34 62 1011.7